This demonstration page uses our WeatherBlox Daily Observations layout. Learn more.

38.88101, -77.10428

Hourly Observations for March 3, 2016

Temp ( °F °C ) Dew Point ( °F °C ) Humidity (%) Winds ( mph kmh ) Pressure ( in mb ) Visibility ( mi km ) Precip ( " mm )
12:52 am 00:52 Clear 31 -0.6 15 -9.4 52 52 NNW 8 13 30.2 1023 10 16.0934 0 0
1:52 am 01:52 Clear 31 -0.6 14 -10 49 49 NW 10 17 30.22 1023 10 16.0934 0 0
2:52 am 02:52 Clear 30 -1.1 14 -10 51 51 NNW 8 13 30.22 1024 10 16.0934 0 0
3:20 am 03:20 Partly Cloudy 30 -1 14 -10 51 51 NW 7 11 30.24 1024 10 16.0934 0 0
3:52 am 03:52 Partly Cloudy 31 -0.6 14 -10 49 49 NW 8 13 30.23 1024 10 16.0934 0 0
4:52 am 04:52 Mostly Cloudy 30 -1.1 14 -10 51 51 NNW 7 11 30.25 1024 10 16.0934 0 0
5:52 am 05:52 Cloudy 30 -1.1 14 -10 51 51 N 7 11 30.28 1025 10 16.0934 0 0
6:52 am 06:52 Mostly Cloudy 31 -0.6 16 -8.9 54 54 ENE 9 15 30.29 1026 10 16.0934 0 0
7:52 am 07:52 Mostly Cloudy 32 0 16 -8.9 52 52 ENE 7 11 30.31 1026 10 16.0934 0 0
8:52 am 08:52 Mostly Cloudy 35 1.7 16 -8.9 46 46 Calm 30.33 1027 10 16.0934 0 0
9:52 am 09:52 Cloudy 34 1.1 17 -8.3 50 50 SSE 5 7 30.34 1027 10 16.0934 0 0
10:52 am 10:52 Cloudy 36 2.2 17 -8.3 46 46 ESE 6 9 30.3 1026 10 16.0934 0 0
11:52 am 11:52 Cloudy 38 3.3 17 -8.3 43 43 VRB 3 6 30.28 1026 10 16.0934 0 0
12:52 pm 12:52 Cloudy 38 3.3 15 -9.4 39 39 E 5 7 30.25 1024 10 16.0934 0 0
1:52 pm 13:52 Cloudy 40 4.4 15 -9.4 36 36 Calm 30.22 1023 10 16.0934 0 0
2:52 pm 14:52 Cloudy 41 5 16 -8.9 36 36 SW 5 7 30.21 1023 10 16.0934 0 0
3:52 pm 15:52 Cloudy 41 5 16 -8.9 36 36 SSW 8 13 30.21 1023 10 16.0934 0 0
4:52 pm 16:52 Cloudy 40 4.4 19 -7.2 43 43 SSW 5 7 30.19 1022 10 16.0934 0 0
5:19 pm 17:19 Cloudy 39 3.9 21 -6.1 48 48 SE 10 17 30.21 1023 10 16.0934 0 0
5:33 pm 17:33 Cloudy 39 3.9 22 -5.6 50 50 ESE 10 17 30.21 1023 10 16.0934 0 0
5:52 pm 17:52 Cloudy 39 3.9 21 -6.1 48 48 ESE 13 20 30.21 1023 10 16.0934 0 0
6:52 pm 18:52 Cloudy with Light Snow 39 3.9 21 -6.1 48 48 S 10 17 30.21 1023 10 16.0934 0 0.0254
7:52 pm 19:52 Cloudy with Light Snow 36 2.2 27 -2.8 70 70 S 15 24 30.2 1023 9 14.48406 0 0.0254
8:44 pm 20:44 Cloudy with Light Snow 36 2 28 -2 75 75 SSE 9 15 30.21 1023 3 4.82802 0 0
8:48 pm 20:48 Cloudy with Light Snow 36 2 28 -2 75 75 SSE 10 17 30.21 1023 2.5 4.02335 0 0
8:52 pm 20:52 Cloudy with Light Snow 34 1.1 29 -1.7 82 82 SE 10 17 30.19 1022 2.5 4.02335 0 0.0254
8:59 pm 20:59 Cloudy with Light Snow 34 1.1 29 -1.7 82 82 SSE 8 13 30.21 1023 3 4.82802 0 0.0254
9:11 pm 21:11 Cloudy with Light Snow 34 1.1 29 -1.7 82 82 SE 7 11 30.18 1022 5 8.0467 0 0.0254
9:52 pm 21:52 Cloudy with Light Snow 34 1.1 29 -1.7 82 82 SE 7 11 30.18 1022 9 14.48406 0 0.0254
10:49 pm 22:49 Cloudy with Light Snow 34 1 28 -2 81 81 SE 6 9 30.18 1022 2 3.21868 0 0.0254
10:52 pm 22:52 Cloudy with Light Snow 33 0.6 30 -1.1 89 89 SSE 5 7 30.18 1022 2 3.21868 0 0.0254
10:59 pm 22:59 Cloudy with Light Snow 33 0.6 30 -1.1 89 89 SE 6 9 30.18 1022 2 3.21868 0 0.0254
11:12 pm 23:12 Cloudy with Light Snow 34 1 30 -1 87 87 ESE 5 7 30.18 1022 2 3.21868 0 0
11:40 pm 23:40 Cloudy with Light Snow 34 1 30 -1 87 87 SSE 5 7 30.15 1021 2 3.21868 0 0
11:52 pm 23:52 Cloudy with Light Snow 32 0 30 -1.1 92 92 SSE 5 7 30.15 1021 2 3.21868 0.02 0.508

Powered by AerisWeather